Find Starlink 31487

NORAD ID: 59297 Int'l Des: 2024-056 Owner: SPXS Country: US Constellation: starlink operational
LEOCIRCULAR

当前视图

正在加载3D地球...

About Starlink 31487

Starlink 31487 (NORAD 59297) is a starlink constellation satellite (v2 mini) launched Mar 24, 2024 by SPXS of US. It operates in LEO, CIRCULAR orbit with a mass of 730.00 kg.

关于 Starlink 31487

正在加载描述...

即将过境

Passes for default location (London). Set your location on the main map for personalized predictions.

高度历史

Loading altitude history...

两行轨道根数

1 59297U 24056B 26178.15828538 -.00000859 00000-0 -21660-4 0 9996
2 59297 43.0055 332.7063 0002148 280.0519 80.0090 15.27586338128012
Epoch: Jun 27, 2026 • Age: 11 hours

当前状态

高度 487.6 km
速度 7.63 km/s
星下点 43.15°N, 81.91°W
发射日期 Mar 24, 2024
运行时间 2.2 years
类型 internet

技术详情

分类 Payload
质量 730.00 kg
干质量 700.00 kg
总质量 730.00 kg
长度 0.30 m
直径 4.10 m
跨度 29.00 m
形状 Box + pan
制造商 SPXS
平台类型 Starlink V2M
阶段状态 In Orbit
所有者/国家 SPXS/US

Most Searched